This is the latest recevied weather packets stored in our database for station/object WC4PEM-12. If no packets are shown the sender has not sent any weather packets the latest 10 day(s).
| Time | Temp. | Humidity | Pressure | Rain* | Wind** | Luminosity | Snow |
|---|---|---|---|---|---|---|---|
| 1777055308 | 28.89° C | 48% | 1012.9 hPa | 0 mm | - | - | - |
| 1777055008 | 28.89° C | 48% | 1012.9 hPa | 0 mm | - | - | - |
| 1777054708 | 28.89° C | 48% | 1012.8 hPa | 0 mm | - | - | - |
| 1777054408 | 28.89° C | 48% | 1012.8 hPa | 0 mm | - | - | - |
| 1777054108 | 28.89° C | 49% | 1012.9 hPa | 0 mm | - | - | - |
| 1777053808 | 28.89° C | 49% | 1013.1 hPa | 0 mm | - | - | - |
| 1777053508 | 28.89° C | 48% | 1013.2 hPa | 0 mm | - | - | - |
| 1777053208 | 28.89° C | 50% | 1013.2 hPa | 0 mm | - | - | - |
| 1777052908 | 28.89° C | 48% | 1013.2 hPa | 0 mm | - | - | - |
| 1777052608 | 28.89° C | 48% | 1013.5 hPa | 0 mm | - | - | - |
| 1777052308 | 29.44° C | 47% | 1013.3 hPa | 0 mm | - | - | - |
| 1777052008 | 29.44° C | 49% | 1013.4 hPa | 0 mm | - | - | - |
| 1777051824 | 29.44° C | 48% | 1013.5 hPa | 0 mm | - | - | - |
| 1777051708 | 29.44° C | 48% | 1013.5 hPa | 0 mm | - | - | - |
| 1777051623 | 29.44° C | 51% | 1013.4 hPa | 0 mm | - | - | - |
| 1777051408 | 29.44° C | 51% | 1013.4 hPa | 0 mm | - | - | - |
| 1777051108 | 29.44° C | 51% | 1013.5 hPa | 0 mm | - | - | - |
| 1777050808 | 28.89° C | 52% | 1013.7 hPa | 0 mm | - | - | - |
| 1777050508 | 28.89° C | 52% | 1013.8 hPa | 0 mm | - | - | - |
| 1777050208 | 28.89° C | 51% | 1013.9 hPa | 0 mm | - | - | - |
| 1777049908 | 28.33° C | 50% | 1013.9 hPa | 0 mm | - | - | - |
| 1777049840 | 28.33° C | 52% | 1014.1 hPa | 0 mm | - | - | - |
| 1777049608 | 28.33° C | 52% | 1014.1 hPa | 0 mm | - | - | - |
| 1777049308 | 27.78° C | 53% | 1014.1 hPa | 0 mm | - | - | - |
| 1777049254 | 27.78° C | 53% | 1014.2 hPa | 0 mm | - | - | - |
* Rain latest hour (hover to see other rain measurements)
** Current wind speed in m/s (hover to see current wind gust speed)